Tracking 23610 objects as of 20-Sep-2021
HD Live streaming from Space Station
objects crossing your sky now

SHIJIAN-15 (SJ-15)

Track SHIJIAN-15 (SJ-15) now!
10-day predictions
SHIJIAN-15 (SJ-15) is classified as:


NORAD ID: 39210
Int'l Code: 2013-037C
Perigee: 671.4 km
Apogee: 679.1 km
Inclination: 98.0 °
Period: 98.1 minutes
Semi major axis: 7046 km
RCS: Unknown
Launch date: July 19, 2013
Source: People's Republic of China (PRC)
Launch site: Taiyaun Space Center, China (TSC)

SHIJIAN 15 is a technology satellite, precise mission unknown at present.
aabbcc
Your satellite tracking list
Your tracking list is empty




NASA's NSSDC Master Catalog

Two Line Element Set (TLE):
1 39210U 13037C   21262.94147634  .00000100  00000-0  26017-4 0  9991
2 39210  98.0310 260.3055 0005518 241.3532 118.7119 14.67794248440107
Source of the keplerian elements: AFSPC